Flag for Poland Weather past 2 weeks in Bydgoszcz, Poland

39 °F

Passing clouds.

Feels Like: 33 °F
Forecast: 37 / 49 °F
Wind: 9 mph from Southeast

Location: Poznan Airport

Current Time: Oct 14, 2015 at 1:07:47 AM

Latest Report: Oct 14, 2015 at 12:30 AM

Visibility: 4 mi

Pressure: 30.15 "Hg

Humidity: 81%

Dew point: 34 °F

Location of BydgoszczLocation

Historic Weather in Bydgoszcz — Graph


Bydgoszcz temperature yesterday

Maximum temperature yesterday: 41 °F (at 3:00 PM)
Minimum temperature yesterday: 36 °F (at 12:00 AM)
Average temperature yesterday: 39 °F

Past Weeks' High & Low Weather Summary

High70 °F (Oct 3, 2:00 PM)100% (Sep 29, 7:00 AM)30.66 "Hg (Sep 29, 7:00 AM)
Low30 °F (Oct 11, 6:30 AM)28% (Oct 9, 1:30 PM)29.89 "Hg (Oct 6, 4:00 PM)
Average48 °F66%30.22 "Hg
* Reported Sep 28 11:00 PM — Oct 13 11:30 PM, Bydgoszcz, Weather by CustomWeather, © 2015

Note: Actual official high and low records may vary slightly from our data, if they occured in-between our weather recording intervals... More about our weather records


Bydgoszcz weather history for previous 24 hours

Time TempWeatherWind HumidityBarometerVisibility
11:30 PM
Tue, Oct 13
39 °FPassing clouds.7 mph81%30.15 "Hg4 mi
11:00 PM39 °FFog.6 mph87%30.15 "Hg3 mi
10:30 PM39 °FFog.3 mph87%30.15 "Hg3 mi
10:00 PM39 °FFog.3 mph87%30.15 "Hg3 mi
9:30 PM39 °FDrizzle. Fog.3 mph87%30.15 "Hg3 mi
9:00 PM39 °FDrizzle. Fog.6 mph87%30.15 "Hg3 mi
8:30 PM39 °FFog.6 mph87%30.15 "Hg3 mi
8:00 PM39 °FFog.6 mph87%30.15 "Hg3 mi
7:30 PM39 °FFog.6 mph87%30.15 "Hg3 mi
7:00 PM41 °FFog.6 mph81%30.15 "Hg3 mi
6:30 PM41 °FFog.7 mph81%30.12 "Hg3 mi
6:00 PM41 °FFog.6 mph81%30.12 "Hg2 mi
5:30 PM41 °FFog.5 mph81%30.12 "Hg2 mi
5:00 PM41 °FFog.5 mph81%30.12 "Hg3 mi
4:30 PM41 °FFog.3 mph81%30.12 "Hg3 mi
4:00 PM39 °FFog.6 mph87%30.12 "Hg3 mi
3:30 PM39 °FPartly sunny.5 mph87%30.12 "Hg4 mi
3:00 PM41 °FPartly sunny.6 mph81%30.12 "Hg4 mi
2:30 PM39 °FPartly sunny.5 mph87%30.12 "Hg4 mi
2:00 PM39 °FPartly sunny.6 mph87%30.12 "Hg4 mi
1:30 PM39 °FPartly sunny.7 mph87%30.12 "Hg4 mi
1:00 PM39 °FPartly sunny.7 mph87%30.12 "Hg4 mi
12:30 PM39 °FFog.7 mph87%30.12 "Hg3 mi
12:00 PM39 °FFog.6 mph87%30.12 "Hg3 mi
11:30 AM39 °FFog.5 mph87%30.12 "Hg3 mi
11:00 AM37 °FFog.6 mph93%30.12 "Hg3 mi
10:30 AM37 °FFog.6 mph93%30.12 "Hg2 mi
10:00 AM37 °FFog.6 mph93%30.12 "Hg2 mi
9:30 AM37 °FDrizzle. Fog.8 mph100%30.12 "Hg1 mi
9:00 AM37 °FDrizzle. Fog.7 mph100%30.12 "Hg1 mi
8:30 AM37 °FDrizzle. Fog.7 mph100%30.12 "Hg1 mi
8:00 AM37 °FDrizzle. Fog.7 mph93%30.12 "Hg2 mi
7:30 AM37 °FDrizzle. Fog.7 mph93%30.12 "Hg2 mi
7:00 AM37 °FPassing clouds.7 mph93%30.12 "HgN/A
6:30 AM37 °FPassing clouds.8 mph93%30.12 "HgN/A
5:30 AM37 °FPassing clouds.10 mph93%30.12 "HgN/A
5:00 AM37 °FPassing clouds.8 mph93%30.12 "HgN/A
4:30 AM37 °FPassing clouds.8 mph93%30.15 "HgN/A
4:00 AM37 °FPassing clouds.9 mph87%30.15 "HgN/A
3:30 AM37 °FPassing clouds.9 mph87%30.15 "HgN/A
3:00 AM37 °FPassing clouds.9 mph87%30.15 "HgN/A
2:30 AM37 °FPassing clouds.10 mph87%30.15 "HgN/A
2:00 AM37 °FPassing clouds.9 mph87%30.18 "HgN/A
1:30 AM37 °FPassing clouds.10 mph87%30.18 "HgN/A
1:00 AM36 °FPassing clouds.10 mph93%30.18 "HgN/A
Weather by CustomWeather, © 2015

See weather overviewHow to use our weather pages